Regional Weather Roundup
Issued by NWS

Home | Current Version | Previous Version | Graphics & Text | Print | Product List | Glossary On
Versions: 1 2 3 4 5 6 7 8 9 10 11 12 13 14 15 16 17 18 19 20 21 22 23 24 25 26 27 28 29 30 31 32 33 34 35 36 37 38 39 40 41 42 43 44 45 46 47 48 49 50
000
ASUS43 KFSD 200702
RWRSD

WEATHER ROUNDUP FOR SOUTH DAKOTA
NATIONAL WEATHER SERVICE SIOUX FALLS SD
100 AM CST MON FEB 20 2017

NOTE: "FAIR" INDICATES FEW OR NO CLOUDS BELOW 12,000 FEET WITH NO
SIGNIFICANT WEATHER AND/OR OBSTRUCTIONS TO VISIBILITY.


SDZ001>005-009-010-012>017-200800-
NORTHWEST AND NORTH CENTRAL SOUTH DAKOTA

CITY           SKY/WX    TMP DP  RH WIND       PRES   REMARKS
BUFFALO          N/A     45  37  73 NW14      29.53R
FAITH            N/A     52  39  61 SW12      29.51F
MOBRIDGE         N/A     44  34  67 E8        29.50F
$$

SDZ012>016-024>037-041>051-057-063-072>074-200800-
SOUTHWEST AND SOUTH CENTRAL SOUTH DAKOTA

CITY           SKY/WX    TMP DP  RH WIND       PRES   REMARKS
RAPID CTY ARPT CLOUDY    54  35  48 S6        29.56R
PIERRE         CLOUDY    52  41  66 SE10      29.53F
CUSTER         CLOUDY    43  31  62 W12       29.62S
ELLSWORTH AFB  LGT RAIN  53  36  53 NW8       29.55
PHILIP         CLOUDY    47  38  71 N10       29.55S
PINE RIDGE     CLOUDY    41  36  82 SW3       29.62R
SPEARFISH      FAIR      48  32  53 W13G20    29.62R
WINNER         FAIR      59  48  67 S15G24    29.58S
$$

SDZ004>011-016>023-039-040-200800-
NORTHEAST SOUTH DAKOTA

CITY           SKY/WX    TMP DP  RH WIND       PRES   REMARKS
ABERDEEN       CLOUDY    53  46  77 SE21G30   29.58F
WATERTOWN      CLOUDY    49  46  90 S13       29.65S
BROOKINGS      CLOUDY    51  48  89 S14       29.69S
SISSETON         N/A     57  50  77 SW25G32   29.62R
$$

SDZ017-020-022-023-036>040-048>070-200800-
SOUTHEAST SOUTH DAKOTA

CITY           SKY/WX    TMP DP  RH WIND       PRES   REMARKS
SIOUX FALLS    CLOUDY    55  51  86 S15       29.71F
HURON          CLOUDY    53  49  86 SE16      29.60S
CHAMBERLAIN    CLOUDY    58  50  75 SW13G18   29.59R
MITCHELL       CLOUDY    55  50  83 S16G24    29.63F
YANKTON        MOCLDY    55  48  76 S13       29.69F
$$

ABBREVIATIONS USED IN REMARKS
   TC - TEMPERATURE IN CELSIUS
  WCI - WIND CHILL INDEX
   HX - HEAT INDEX
  VSB - VISIBILITY




USA.gov is the U.S. government's official web portal to all federal, state and local government web resources and services.